Time,TemperatureF,DewpointF,PressureIn,WindDirection,WindDirectionDegrees,WindSpeedMPH,WindSpeedGustMPH,Humidity,HourlyPrecipIn,Conditions,Clouds,dailyrainin,SoftwareType,DateUTC
2013-01-12 00:11:00,45.0,36.0,-100.00,North,-999,-999.0,-999.0,72,0.00,,,0.00,,2013-01-12 08:11:00,
2013-01-12 00:22:00,45.0,36.0,-100.00,North,-999,-999.0,-999.0,72,0.00,,,0.00,,2013-01-12 08:22:00,
2013-01-12 00:32:00,45.0,36.0,-100.00,North,-999,-999.0,-999.0,72,0.00,,,0.00,,2013-01-12 08:32:00,
2013-01-12 00:42:00,45.0,36.0,-100.00,North,-999,-999.0,-999.0,72,0.00,,,0.00,,2013-01-12 08:42:00,
2013-01-12 01:12:00,44.0,37.0,-100.00,North,-999,-999.0,-999.0,77,0.00,,,0.00,,2013-01-12 09:12:00,
2013-01-12 01:22:00,44.0,37.0,-100.00,North,-999,-999.0,-999.0,77,0.00,,,0.00,,2013-01-12 09:22:00,
2013-01-12 01:32:00,44.0,37.0,-100.00,North,-999,-999.0,-999.0,77,0.00,,,0.00,,2013-01-12 09:32:00,
2013-01-12 01:42:00,44.0,37.0,-100.00,North,-999,-999.0,-999.0,77,0.00,,,0.00,,2013-01-12 09:42:00,
2013-01-12 02:11:00,43.0,35.0,-100.00,North,-999,-999.0,-999.0,73,0.00,,,0.00,,2013-01-12 10:11:00,
2013-01-12 02:22:00,43.0,35.0,-100.00,North,-999,-999.0,-999.0,73,0.00,,,0.00,,2013-01-12 10:22:00,
2013-01-12 02:32:00,43.0,35.0,-100.00,North,-999,-999.0,-999.0,73,0.00,,,0.00,,2013-01-12 10:32:00,
2013-01-12 02:42:00,43.0,35.0,-100.00,North,-999,-999.0,-999.0,73,0.00,,,0.00,,2013-01-12 10:42:00,
2013-01-12 03:12:00,43.0,34.0,-100.00,North,-999,-999.0,-999.0,70,0.00,,,0.00,,2013-01-12 11:12:00,
2013-01-12 03:22:00,43.0,34.0,-100.00,North,-999,-999.0,-999.0,70,0.00,,,0.00,,2013-01-12 11:22:00,
2013-01-12 03:32:00,43.0,34.0,-100.00,North,-999,-999.0,-999.0,70,0.00,,,0.00,,2013-01-12 11:32:00,
2013-01-12 03:42:00,43.0,34.0,-100.00,North,-999,-999.0,-999.0,70,0.00,,,0.00,,2013-01-12 11:42:00,
2013-01-12 04:12:00,42.0,35.0,-100.00,North,-999,-999.0,-999.0,76,0.00,,,0.00,,2013-01-12 12:12:00,
2013-01-12 04:22:00,42.0,35.0,-100.00,North,-999,-999.0,-999.0,76,0.00,,,0.00,,2013-01-12 12:22:00,
2013-01-12 04:32:00,42.0,35.0,-100.00,North,-999,-999.0,-999.0,76,0.00,,,0.00,,2013-01-12 12:32:00,
2013-01-12 04:42:00,42.0,35.0,-100.00,North,-999,-999.0,-999.0,76,0.00,,,0.00,,2013-01-12 12:42:00,
2013-01-12 05:12:00,42.0,34.0,-100.00,North,-999,-999.0,-999.0,72,0.00,,,0.00,,2013-01-12 13:12:00,
2013-01-12 05:22:00,42.0,34.0,-100.00,North,-999,-999.0,-999.0,72,0.00,,,0.00,,2013-01-12 13:22:00,
2013-01-12 05:32:00,42.0,34.0,-100.00,North,-999,-999.0,-999.0,72,0.00,,,0.00,,2013-01-12 13:32:00,
2013-01-12 05:42:00,42.0,34.0,-100.00,North,-999,-999.0,-999.0,72,0.00,,,0.00,,2013-01-12 13:42:00,
2013-01-12 05:43:00,41.0,32.0,-100.00,North,-999,-999.0,-999.0,69,0.00,,,0.00,,2013-01-12 13:43:00,
2013-01-12 06:12:00,41.0,32.0,-100.00,North,-999,-999.0,-999.0,69,0.00,,,0.00,,2013-01-12 14:12:00,
2013-01-12 06:22:00,41.0,32.0,-100.00,North,-999,-999.0,-999.0,69,0.00,,,0.00,,2013-01-12 14:22:00,
2013-01-12 06:32:00,41.0,32.0,-100.00,North,-999,-999.0,-999.0,69,0.00,,,0.00,,2013-01-12 14:32:00,
2013-01-12 07:12:00,41.0,33.0,-100.00,North,-999,-999.0,-999.0,74,0.00,,,0.00,,2013-01-12 15:12:00,
2013-01-12 07:22:00,41.0,33.0,-100.00,North,-999,-999.0,-999.0,74,0.00,,,0.00,,2013-01-12 15:22:00,
2013-01-12 07:33:00,41.0,33.0,-100.00,North,-999,-999.0,-999.0,74,0.00,,,0.00,,2013-01-12 15:33:00,
2013-01-12 07:42:00,41.0,33.0,-100.00,North,-999,-999.0,-999.0,74,0.00,,,0.00,,2013-01-12 15:42:00,
2013-01-12 08:12:00,40.0,33.0,-100.00,North,-999,-999.0,-999.0,76,0.00,,,0.00,,2013-01-12 16:12:00,
2013-01-12 08:23:00,40.0,33.0,-100.00,North,-999,-999.0,-999.0,76,0.00,,,0.00,,2013-01-12 16:23:00,
2013-01-12 08:32:00,40.0,33.0,-100.00,North,-999,-999.0,-999.0,76,0.00,,,0.00,,2013-01-12 16:32:00,
2013-01-12 08:42:00,40.0,33.0,-100.00,North,-999,-999.0,-999.0,76,0.00,,,0.00,,2013-01-12 16:42:00,
2013-01-12 09:12:00,43.0,36.0,-100.00,North,-999,-999.0,-999.0,74,0.00,,,0.00,,2013-01-12 17:12:00,
2013-01-12 09:22:00,43.0,36.0,-100.00,North,-999,-999.0,-999.0,74,0.00,,,0.00,,2013-01-12 17:22:00,
2013-01-12 09:32:00,43.0,36.0,-100.00,North,-999,-999.0,-999.0,74,0.00,,,0.00,,2013-01-12 17:32:00,
2013-01-12 09:42:00,43.0,36.0,-100.00,North,-999,-999.0,-999.0,74,0.00,,,0.00,,2013-01-12 17:42:00,
2013-01-12 10:12:00,45.0,30.0,-100.00,North,-999,-999.0,-999.0,54,0.00,,,-99.99,,2013-01-12 18:12:00,
2013-01-12 10:22:00,45.0,30.0,-100.00,North,-999,-999.0,-999.0,54,0.00,,,-99.99,,2013-01-12 18:22:00,
2013-01-12 10:33:00,45.0,30.0,-100.00,North,-999,-999.0,-999.0,54,0.00,,,-99.99,,2013-01-12 18:33:00,
2013-01-12 10:42:00,45.0,30.0,-100.00,North,-999,-999.0,-999.0,54,0.00,,,-99.99,,2013-01-12 18:42:00,
2013-01-12 11:12:00,46.0,25.0,-100.00,North,-999,-999.0,-999.0,43,0.00,,,0.00,,2013-01-12 19:12:00,
2013-01-12 11:22:00,46.0,25.0,-100.00,North,-999,-999.0,-999.0,43,0.00,,,0.00,,2013-01-12 19:22:00,
2013-01-12 11:32:00,46.0,25.0,-100.00,North,-999,-999.0,-999.0,43,0.00,,,0.00,,2013-01-12 19:32:00,
2013-01-12 11:42:00,46.0,25.0,-100.00,North,-999,-999.0,-999.0,43,0.00,,,0.00,,2013-01-12 19:42:00,
2013-01-12 12:12:00,47.0,25.0,-100.00,North,-999,-999.0,-999.0,41,0.00,,,0.00,,2013-01-12 20:12:00,
2013-01-12 12:22:00,47.0,25.0,-100.00,North,-999,-999.0,-999.0,41,0.00,,,0.00,,2013-01-12 20:22:00,
2013-01-12 12:32:00,47.0,25.0,-100.00,North,-999,-999.0,-999.0,41,0.00,,,0.00,,2013-01-12 20:32:00,
2013-01-12 12:42:00,47.0,25.0,-100.00,North,-999,-999.0,-999.0,41,0.00,,,0.00,,2013-01-12 20:42:00,
2013-01-12 13:12:00,48.0,23.0,-100.00,North,-999,-999.0,-999.0,36,0.00,,,0.00,,2013-01-12 21:12:00,
2013-01-12 13:22:00,48.0,23.0,-100.00,North,-999,-999.0,-999.0,36,0.00,,,0.00,,2013-01-12 21:22:00,
2013-01-12 13:32:00,48.0,23.0,-100.00,North,-999,-999.0,-999.0,36,0.00,,,0.00,,2013-01-12 21:32:00,
2013-01-12 13:42:00,48.0,23.0,-100.00,North,-999,-999.0,-999.0,36,0.00,,,0.00,,2013-01-12 21:42:00,
2013-01-12 14:12:00,49.0,18.0,-100.00,North,-999,-999.0,-999.0,28,0.00,,,0.00,,2013-01-12 22:12:00,
2013-01-12 14:22:00,49.0,18.0,-100.00,North,-999,-999.0,-999.0,28,0.00,,,0.00,,2013-01-12 22:22:00,
2013-01-12 14:32:00,49.0,18.0,-100.00,North,-999,-999.0,-999.0,28,0.00,,,0.00,,2013-01-12 22:32:00,
2013-01-12 14:42:00,49.0,18.0,-100.00,North,-999,-999.0,-999.0,28,0.00,,,0.00,,2013-01-12 22:42:00,
2013-01-12 15:12:00,48.0,19.0,-100.00,North,-999,-999.0,-999.0,31,0.00,,,0.00,,2013-01-12 23:12:00,
2013-01-12 15:22:00,48.0,19.0,-100.00,North,-999,-999.0,-999.0,31,0.00,,,0.00,,2013-01-12 23:22:00,
2013-01-12 15:32:00,48.0,19.0,-100.00,North,-999,-999.0,-999.0,31,0.00,,,0.00,,2013-01-12 23:32:00,
2013-01-12 15:42:00,48.0,19.0,-100.00,North,-999,-999.0,-999.0,31,0.00,,,0.00,,2013-01-12 23:42:00,
2013-01-12 16:12:00,48.0,20.0,-100.00,North,-999,-999.0,-999.0,32,0.00,,,-99.99,,2013-01-13 00:12:00,
2013-01-12 16:22:00,48.0,20.0,-100.00,North,-999,-999.0,-999.0,32,0.00,,,-99.99,,2013-01-13 00:22:00,
2013-01-12 16:32:00,48.0,20.0,-100.00,North,-999,-999.0,-999.0,32,0.00,,,-99.99,,2013-01-13 00:32:00,
2013-01-12 16:42:00,48.0,20.0,-100.00,North,-999,-999.0,-999.0,32,0.00,,,-99.99,,2013-01-13 00:42:00,
2013-01-12 17:12:00,47.0,26.0,-100.00,North,-999,-999.0,-999.0,44,0.00,,,0.00,,2013-01-13 01:12:00,
2013-01-12 17:22:00,47.0,26.0,-100.00,North,-999,-999.0,-999.0,44,0.00,,,0.00,,2013-01-13 01:22:00,
2013-01-12 17:32:00,47.0,26.0,-100.00,North,-999,-999.0,-999.0,44,0.00,,,0.00,,2013-01-13 01:32:00,
2013-01-12 17:42:00,47.0,26.0,-100.00,North,-999,-999.0,-999.0,44,0.00,,,0.00,,2013-01-13 01:42:00,
2013-01-12 18:12:00,46.0,28.0,-100.00,North,-999,-999.0,-999.0,49,0.00,,,0.00,,2013-01-13 02:12:00,
2013-01-12 18:22:00,46.0,28.0,-100.00,North,-999,-999.0,-999.0,49,0.00,,,0.00,,2013-01-13 02:22:00,
2013-01-12 18:32:00,46.0,28.0,-100.00,North,-999,-999.0,-999.0,49,0.00,,,0.00,,2013-01-13 02:32:00,
2013-01-12 18:42:00,46.0,28.0,-100.00,North,-999,-999.0,-999.0,49,0.00,,,0.00,,2013-01-13 02:42:00,
2013-01-12 19:12:00,47.0,30.0,-100.00,North,-999,-999.0,-999.0,53,0.00,,,0.00,,2013-01-13 03:12:00,
2013-01-12 19:22:00,47.0,30.0,-100.00,North,-999,-999.0,-999.0,53,0.00,,,0.00,,2013-01-13 03:22:00,
2013-01-12 19:32:00,47.0,30.0,-100.00,North,-999,-999.0,-999.0,53,0.00,,,0.00,,2013-01-13 03:32:00,
2013-01-12 19:42:00,47.0,30.0,-100.00,North,-999,-999.0,-999.0,53,0.00,,,0.00,,2013-01-13 03:42:00,
2013-01-12 20:12:00,47.0,30.0,-100.00,North,-999,-999.0,-999.0,53,0.00,,,0.00,,2013-01-13 04:12:00,
2013-01-12 20:22:00,47.0,30.0,-100.00,North,-999,-999.0,-999.0,53,0.00,,,0.00,,2013-01-13 04:22:00,
2013-01-12 20:32:00,47.0,30.0,-100.00,North,-999,-999.0,-999.0,53,0.00,,,0.00,,2013-01-13 04:32:00,
2013-01-12 20:42:00,47.0,30.0,-100.00,North,-999,-999.0,-999.0,53,0.00,,,0.00,,2013-01-13 04:42:00,
2013-01-12 21:12:00,46.0,30.0,-100.00,North,-999,-999.0,-999.0,53,0.00,,,0.00,,2013-01-13 05:12:00,
2013-01-12 21:22:00,46.0,30.0,-100.00,North,-999,-999.0,-999.0,53,0.00,,,0.00,,2013-01-13 05:22:00,
2013-01-12 21:32:00,46.0,30.0,-100.00,North,-999,-999.0,-999.0,53,0.00,,,0.00,,2013-01-13 05:32:00,
2013-01-12 21:42:00,46.0,30.0,-100.00,North,-999,-999.0,-999.0,53,0.00,,,0.00,,2013-01-13 05:42:00,
2013-01-12 22:12:00,45.0,32.0,-100.00,North,-999,-999.0,-999.0,60,0.00,,,0.00,,2013-01-13 06:12:00,
2013-01-12 22:22:00,45.0,32.0,-100.00,North,-999,-999.0,-999.0,60,0.00,,,0.00,,2013-01-13 06:22:00,
2013-01-12 22:32:00,45.0,32.0,-100.00,North,-999,-999.0,-999.0,60,0.00,,,0.00,,2013-01-13 06:32:00,
2013-01-12 22:42:00,45.0,32.0,-100.00,North,-999,-999.0,-999.0,60,0.00,,,0.00,,2013-01-13 06:42:00,
2013-01-12 23:12:00,44.0,28.0,-100.00,North,-999,-999.0,-999.0,52,0.00,,,0.00,,2013-01-13 07:12:00,
2013-01-12 23:22:00,44.0,28.0,-100.00,North,-999,-999.0,-999.0,52,0.00,,,0.00,,2013-01-13 07:22:00,
2013-01-12 23:32:00,44.0,28.0,-100.00,North,-999,-999.0,-999.0,52,0.00,,,0.00,,2013-01-13 07:32:00,
2013-01-12 23:42:00,44.0,28.0,-100.00,North,-999,-999.0,-999.0,52,0.00,,,0.00,,2013-01-13 07:42:00,